| time (UTC) | temp C | wind direction | speed KPH | gust KPH | rain 1hr cm | rain 24hr cm | rain mn cm | humidity % | barometer mb |
| 20260507192731 | 16 | 126 | 4.8 | 16.1 | 0.00 | 0.91 | 0.74 | 58 | 1005.2 |
| 20260507191933 | 16 | 79 | 4.8 | 14.5 | 0.00 | 0.91 | 0.74 | 55 | 1005.4 |
| 20260507191432 | 16 | 89 | 4.8 | 14.5 | 0.00 | 0.91 | 0.74 | 61 | 1005.3 |
| 20260507190932 | 16 | 115 | 3.2 | 12.9 | 0.00 | 0.91 | 0.74 | 55 | 1005.4 |
| 20260507190431 | 16 | 142 | 4.8 | 16.1 | 0.00 | 0.91 | 0.74 | 58 | 1005.3 |
| 20260507185930 | 16 | 236 | 4.8 | 16.1 | 0.00 | 0.91 | 0.74 | 57 | 1005.6 |
| 20260507185729 | 17 | 106 | 3.2 | 16.1 | 0.00 | 0.91 | 0.74 | 55 | 1005.6 |
| 20260507184929 | 17 | 121 | 1.6 | 8.0 | 0.00 | 0.91 | 0.74 | 58 | 1005.5 |
| 20260507184429 | 16 | 43 | 3.2 | 9.7 | 0.00 | 0.91 | 0.74 | 61 | 1005.7 |
| 20260507183928 | 16 | 104 | 4.8 | 12.9 | 0.00 | 0.91 | 0.74 | 59 | 1005.7 |
| 20260507183431 | 16 | 114 | 4.8 | 12.9 | 0.00 | 0.91 | 0.74 | 57 | 1005.9 |
| 20260507182931 | 16 | 78 | 3.2 | 9.7 | 0.00 | 0.91 | 0.74 | 60 | 1005.8 |
| 20260507182429 | 16 | 113 | 3.2 | 12.9 | 0.00 | 0.91 | 0.74 | 58 | 1005.9 |
| 20260507181926 | 16 | 200 | 4.8 | 12.9 | 0.00 | 0.91 | 0.74 | 58 | 1005.8 |
| 20260507181513 | 16 | 250 | 3.2 | 11.3 | 0.00 | 0.91 | 0.74 | 58 | 1005.8 |
| 20260507180425 | 16 | 162 | 3.2 | 12.9 | 0.00 | 0.91 | 0.74 | 60 | 1006.1 |
| 20260507175927 | 16 | 129 | 3.2 | 11.3 | 0.00 | 0.91 | 0.74 | 58 | 1006.0 |
| 20260507175423 | 16 | 276 | 3.2 | 11.3 | 0.00 | 0.91 | 0.74 | 59 | 1006.1 |
| 20260507174914 | 15 | 25 | 3.2 | 11.3 | 0.00 | 0.91 | 0.74 | 60 | 1006.0 |
| 20260507174408 | 16 | 243 | 3.2 | 11.3 | 0.00 | 0.91 | 0.74 | 58 | 1006.1 |
| 20260507173909 | 17 | 171 | 1.6 | 6.4 | 0.00 | 0.91 | 0.74 | 55 | 1006.0 |
| 20260507173408 | 17 | 88 | 1.6 | 6.4 | 0.00 | 0.91 | 0.74 | 53 | 1005.9 |
| 20260507172907 | 17 | 78 | 1.6 | 6.4 | 0.00 | 0.91 | 0.74 | 52 | 1006.0 |
| 20260507172407 | 17 | 91 | 3.2 | 6.4 | 0.00 | 0.91 | 0.74 | 53 | 1005.9 |
| 20260507171906 | 17 | 105 | 3.2 | 8.0 | 0.00 | 0.91 | 0.74 | 54 | 1006.1 |
| 20260507171406 | 17 | 253 | 1.6 | 8.0 | 0.00 | 0.91 | 0.74 | 58 | 1006.1 |
| 20260507170904 | 16 | 189 | 1.6 | 6.4 | 0.00 | 0.91 | 0.74 | 59 | 1006.2 |
| 20260507170402 | 16 | 255 | 1.6 | 4.8 | 0.00 | 0.91 | 0.74 | 59 | 1006.2 |
| 20260507165902 | 16 | 236 | 1.6 | 6.4 | 0.00 | 0.91 | 0.74 | 57 | 1006.4 |
| 20260507165438 | 17 | 131 | 1.6 | 6.4 | 0.00 | 0.91 | 0.74 | 60 | 1006.3 |
| 20260507164656 | 17 | 56 | 1.6 | 4.8 | 0.00 | 0.91 | 0.74 | 57 | 1006.2 |
| 20260507163905 | 17 | 140 | 3.2 | 8.0 | 0.00 | 0.91 | 0.74 | 58 | 1006.4 |
| 20260507163402 | 17 | 220 | 4.8 | 11.3 | 0.00 | 0.91 | 0.74 | 54 | 1006.4 |
| 20260507163201 | 17 | 128 | 3.2 | 11.3 | 0.00 | 0.91 | 0.74 | 57 | 1006.6 |
| 20260507162401 | 17 | 133 | 1.6 | 6.4 | 0.00 | 0.91 | 0.74 | 58 | 1006.5 |
| 20260507161901 | 16 | 290 | 1.6 | 6.4 | 0.00 | 0.91 | 0.74 | 58 | 1006.5 |
| 20260507161403 | 16 | 150 | 1.6 | 6.4 | 0.00 | 0.91 | 0.74 | 57 | 1006.8 |
| 20260507161203 | 16 | 226 | 3.2 | 8.0 | 0.00 | 0.91 | 0.74 | 56 | 1006.8 |
| 20260507160401 | 16 | 57 | 1.6 | 8.0 | 0.00 | 0.91 | 0.74 | 56 | 1006.8 |
| 20260507155859 | 16 | 227 | 1.6 | 8.0 | 0.00 | 0.91 | 0.74 | 58 | 1006.9 |
| 20260507155356 | 16 | 225 | 1.6 | 8.0 | 0.00 | 0.91 | 0.74 | 59 | 1007.0 |
| 20260507154857 | 16 | 287 | 1.6 | 6.4 | 0.00 | 0.91 | 0.74 | 61 | 1007.1 |
| 20260507154357 | 15 | 293 | 1.6 | 8.0 | 0.00 | 0.91 | 0.74 | 63 | 1007.2 |
| 20260507153854 | 15 | 246 | 3.2 | 8.0 | 0.00 | 0.91 | 0.74 | 61 | 1007.1 |
| 20260507153355 | 15 | 40 | 3.2 | 6.4 | 0.00 | 0.91 | 0.74 | 62 | 1007.0 |
| 20260507152855 | 15 | 248 | 1.6 | 6.4 | 0.00 | 0.91 | 0.74 | 63 | 1007.1 |
| 20260507152358 | 15 | 37 | 3.2 | 14.5 | 0.00 | 0.91 | 0.74 | 63 | 1007.2 |
| 20260507151855 | 15 | 53 | 3.2 | 14.5 | 0.00 | 0.91 | 0.74 | 60 | 1007.2 |
| 20260507151352 | 15 | 117 | 3.2 | 9.7 | 0.00 | 0.91 | 0.74 | 64 | 1007.2 |
| 20260507150853 | 15 | 285 | 3.2 | 8.0 | 0.00 | 0.91 | 0.74 | 64 | 1007.5 |
| 20260507150354 | 15 | 101 | 3.2 | 8.0 | 0.00 | 0.91 | 0.74 | 63 | 1007.5 |
| 20260507145852 | 15 | 65 | 3.2 | 8.0 | 0.00 | 0.91 | 0.74 | 64 | 1007.4 |
| 20260507145353 | 15 | 175 | 3.2 | 6.4 | 0.00 | 0.91 | 0.74 | 65 | 1007.5 |
| 20260507144852 | 14 | 236 | 1.6 | 6.4 | 0.00 | 0.91 | 0.74 | 68 | 1007.5 |
| 20260507144349 | 14 | 41 | 3.2 | 11.3 | 0.00 | 0.91 | 0.74 | 69 | 1007.5 |
| 20260507143844 | 14 | 219 | 3.2 | 11.3 | 0.00 | 0.91 | 0.74 | 66 | 1007.6 |
| 20260507143336 | 13 | 62 | 3.2 | 9.7 | 0.00 | 0.91 | 0.74 | 70 | 1007.5 |
| 20260507142834 | 14 | 56 | 3.2 | 8.0 | 0.00 | 0.91 | 0.74 | 68 | 1007.7 |
| 20260507142335 | 14 | 274 | 1.6 | 8.0 | 0.00 | 0.91 | 0.74 | 67 | 1007.6 |
| 20260507142128 | 14 | 253 | 1.6 | 6.4 | 0.00 | 0.91 | 0.74 | 74 | 1007.6 |
| 20260507141334 | 14 | 262 | 1.6 | 6.4 | 0.00 | 0.91 | 0.74 | 72 | 1007.8 |
| 20260507141148 | 13 | 129 | 1.6 | 6.4 | 0.00 | 0.91 | 0.74 | 72 | 1007.6 |
| 20260507140333 | 13 | 84 | 3.2 | 11.3 | 0.00 | 0.91 | 0.74 | 73 | 1007.7 |
| 20260507140148 | 13 | 266 | 1.6 | 11.3 | 0.00 | 0.91 | 0.74 | 77 | 1007.6 |
| 20260507135332 | 13 | 44 | 1.6 | 9.7 | 0.00 | 0.91 | 0.74 | 77 | 1007.6 |
| 20260507134832 | 12 | 86 | 1.6 | 8.0 | 0.00 | 0.91 | 0.74 | 81 | 1007.7 |
| 20260507134331 | 12 | 70 | 1.6 | 8.0 | 0.00 | 0.91 | 0.74 | 80 | 1007.8 |
| 20260507134124 | 12 | 219 | 1.6 | 8.0 | 0.00 | 0.91 | 0.74 | 85 | 1007.6 |
| 20260507133330 | 12 | 54 | 1.6 | 8.0 | 0.00 | 0.91 | 0.74 | 88 | 1007.5 |
| 20260507132830 | 12 | 231 | 1.6 | 6.4 | 0.00 | 0.91 | 0.74 | 92 | 1007.6 |
| 20260507132329 | 11 | 223 | 1.6 | 8.0 | 0.00 | 0.91 | 0.74 | 92 | 1007.8 |
| 20260507131831 | 11 | 53 | 1.6 | 8.0 | 0.00 | 0.91 | 0.74 | 93 | 1007.8 |
| 20260507131329 | 11 | 262 | 1.6 | 3.2 | 0.00 | 0.91 | 0.74 | 95 | 1007.8 |
| 20260507130832 | 11 | 223 | 0.0 | 3.2 | 0.00 | 0.91 | 0.74 | 96 | 1007.7 |
| 20260507130327 | 10 | 229 | 0.0 | 3.2 | 0.00 | 0.91 | 0.74 | 96 | 1007.9 |
| 20260507130137 | 10 | 229 | 0.0 | 3.2 | 0.00 | 0.91 | 0.74 | 95 | 1007.8 |
| 20260507125316 | 10 | 228 | 0.0 | 1.6 | 0.00 | 0.91 | 0.74 | 96 | 1007.9 |
| 20260507125107 | 10 | 204 | 0.0 | 1.6 | 0.00 | 0.91 | 0.74 | 96 | 1007.9 |
| 20260507124309 | 10 | 221 | 0.0 | 1.6 | 0.00 | 0.91 | 0.74 | 96 | 1008.0 |
| 20260507124108 | 10 | 270 | 0.0 | 1.6 | 0.00 | 0.91 | 0.74 | 96 | 1008.0 |
| 20260507123306 | 10 | 261 | 0.0 | 0.0 | 0.00 | 0.91 | 0.74 | 96 | 1008.0 |
| 20260507123111 | 10 | 261 | 0.0 | 0.0 | 0.03 | 0.91 | 0.74 | 96 | 1008.0 |
| 20260507122307 | 9 | 250 | 0.0 | 0.0 | 0.05 | 0.91 | 0.74 | 97 | 1007.9 |
| 20260507121801 | 9 | 229 | 0.0 | 0.0 | 0.08 | 0.91 | 0.74 | 96 | 1007.7 |
| 20260507121556 | 9 | 240 | 0.0 | 0.0 | 0.10 | 0.91 | 0.74 | 96 | 1007.8 |
| 20260507120803 | 9 | 237 | 0.0 | 0.0 | 0.13 | 0.91 | 0.74 | 96 | 1007.7 |
| 20260507120707 | 8 | 237 | 0.0 | 0.0 | 0.13 | 0.91 | 0.74 | 96 | 1007.8 |
| 20260507115553 | 8 | 209 | 0.0 | 0.0 | 0.13 | 0.91 | 0.74 | 96 | 1007.7 |
| 20260507114802 | 8 | 209 | 0.0 | 0.0 | 0.13 | 0.91 | 0.74 | 96 | 1007.7 |
| 20260507114556 | 8 | 209 | 0.0 | 0.0 | 0.13 | 0.91 | 0.74 | 96 | 1007.9 |
| 20260507113803 | 8 | 203 | 0.0 | 0.0 | 0.13 | 0.91 | 0.74 | 96 | 1007.6 |
| 20260507113549 | 8 | 203 | 0.0 | 0.0 | 0.13 | 0.91 | 0.74 | 96 | 1007.4 |
| 20260507112802 | 8 | 205 | 0.0 | 0.0 | 0.10 | 0.89 | 0.71 | 96 | 1007.6 |
| 20260507112301 | 8 | 205 | 0.0 | 0.0 | 0.08 | 0.86 | 0.69 | 96 | 1007.8 |
| 20260507111759 | 8 | 203 | 0.0 | 0.0 | 0.05 | 0.84 | 0.66 | 96 | 1007.8 |
| 20260507111258 | 8 | 254 | 0.0 | 0.0 | 0.05 | 0.81 | 0.64 | 95 | 1008.1 |
| 20260507110759 | 8 | 161 | 0.0 | 0.0 | 0.03 | 0.79 | 0.61 | 96 | 1007.6 |
| 20260507110255 | 8 | 252 | 0.0 | 0.0 | 0.05 | 0.79 | 0.61 | 96 | 1007.5 |
| 20260507110054 | 8 | 254 | 0.0 | 1.6 | 0.05 | 0.79 | 0.61 | 96 | 1007.4 |
| 20260507105251 | 8 | 254 | 0.0 | 1.6 | 0.08 | 0.79 | 0.61 | 95 | 1007.2 |
| 20260507104752 | 8 | 112 | 0.0 | 1.6 | 0.08 | 0.79 | 0.61 | 96 | 1007.5 |
| 20260507104545 | 8 | 112 | 0.0 | 1.6 | 0.08 | 0.79 | 0.61 | 96 | 1007.5 |
| 20260507103751 | 8 | 49 | 0.0 | 1.6 | 0.08 | 0.79 | 0.61 | 96 | 1007.6 |
| 20260507103251 | 9 | 49 | 0.0 | 6.4 | 0.08 | 0.79 | 0.61 | 95 | 1007.6 |
| 20260507102752 | 9 | 347 | 0.0 | 6.4 | 0.10 | 0.79 | 0.61 | 95 | 1007.9 |
| 20260507102252 | 9 | 167 | 0.0 | 6.4 | 0.10 | 0.79 | 0.61 | 96 | 1007.9 |
| 20260507101751 | 10 | 318 | 1.6 | 8.0 | 0.10 | 0.79 | 0.61 | 95 | 1007.6 |
| 20260507101251 | 10 | 243 | 0.0 | 8.0 | 0.08 | 0.76 | 0.58 | 96 | 1007.5 |
| 20260507100751 | 10 | 90 | 0.0 | 3.2 | 0.08 | 0.76 | 0.56 | 96 | 1007.4 |
| 20260507100538 | 10 | 120 | 0.0 | 1.6 | 0.08 | 0.74 | 0.56 | 96 | 1007.4 |
| 20260507100049 | 10 | 121 | 0.0 | 1.6 | 0.08 | 0.74 | 0.56 | 96 | 1007.5 |
| 20260507095243 | 10 | 121 | 0.0 | 1.6 | 0.05 | 0.71 | 0.53 | 96 | 1007.2 |
| 20260507094743 | 10 | 121 | 0.0 | 1.6 | 0.08 | 0.71 | 0.53 | 96 | 1007.1 |
| 20260507094245 | 10 | 257 | 0.0 | 1.6 | 0.10 | 0.71 | 0.53 | 96 | 1007.4 |
| 20260507093743 | 10 | 220 | 0.0 | 1.6 | 0.10 | 0.71 | 0.53 | 96 | 1007.2 |
| 20260507093245 | 10 | 220 | 0.0 | 1.6 | 0.10 | 0.71 | 0.53 | 96 | 1007.3 |
| 20260507092801 | 10 | 259 | 0.0 | 1.6 | 0.13 | 0.69 | 0.51 | 96 | 1007.2 |
| 20260507092243 | 11 | 259 | 0.0 | 4.8 | 0.20 | 0.69 | 0.51 | 96 | 1007.4 |
| 20260507091742 | 11 | 259 | 1.6 | 9.7 | 0.28 | 0.69 | 0.51 | 95 | 1006.9 |
| 20260507091554 | 11 | 274 | 1.6 | 9.7 | 0.33 | 0.69 | 0.51 | 95 | 1006.8 |
| 20260507091034 | 11 | 265 | 0.0 | 3.2 | 0.36 | 0.69 | 0.51 | 96 | 1006.6 |
| 20260507090245 | 11 | 29 | 0.0 | 1.6 | 0.36 | 0.66 | 0.48 | 96 | 1006.8 |
| 20260507085743 | 11 | 54 | 0.0 | 1.6 | 0.38 | 0.66 | 0.48 | 96 | 1006.7 |
| 20260507085241 | 11 | 54 | 0.0 | 1.6 | 0.38 | 0.66 | 0.48 | 96 | 1006.6 |
| 20260507084738 | 11 | 259 | 0.0 | 1.6 | 0.46 | 0.64 | 0.46 | 96 | 1006.8 |
| 20260507084236 | 11 | 259 | 0.0 | 1.6 | 0.43 | 0.61 | 0.43 | 96 | 1006.7 |
| 20260507083737 | 11 | 98 | 0.0 | 1.6 | 0.43 | 0.61 | 0.43 | 95 | 1006.5 |
| 20260507083235 | 12 | 56 | 0.0 | 1.6 | 0.41 | 0.58 | 0.41 | 95 | 1006.7 |
| 20260507082736 | 12 | 262 | 0.0 | 1.6 | 0.38 | 0.56 | 0.36 | 95 | 1006.8 |
| 20260507082236 | 12 | 262 | 0.0 | 1.6 | 0.30 | 0.48 | 0.28 | 95 | 1006.9 |
| 20260507082028 | 12 | 126 | 0.0 | 1.6 | 0.23 | 0.41 | 0.20 | 95 | 1006.7 |
| 20260507081235 | 12 | 160 | 0.0 | 1.6 | 0.18 | 0.36 | 0.18 | 95 | 1006.7 |
| 20260507080739 | 12 | 251 | 0.0 | 3.2 | 0.15 | 0.33 | 0.15 | 95 | 1006.7 |
| 20260507080236 | 12 | 127 | 0.0 | 3.2 | 0.13 | 0.30 | 0.13 | 95 | 1006.4 |
| 20260507075736 | 12 | 127 | 0.0 | 3.2 | 0.10 | 0.28 | 0.10 | 95 | 1006.6 |
| 20260507075235 | 12 | 277 | 0.0 | 3.2 | 0.08 | 0.25 | 0.08 | 95 | 1006.7 |
| 20260507074736 | 13 | 86 | 0.0 | 3.2 | 0.00 | 0.18 | 0.00 | 96 | 1006.4 |
| 20260507074235 | 13 | 85 | 0.0 | 4.8 | 0.00 | 0.18 | 0.00 | 96 | 1005.9 |
| 20260507073737 | 13 | 135 | 0.0 | 4.8 | 0.00 | 0.18 | 0.00 | 96 | 1005.8 |
| 20260507073236 | 13 | 124 | 0.0 | 1.6 | 0.00 | 0.18 | 0.00 | 95 | 1005.7 |
| 20260507072737 | 13 | 124 | 0.0 | 1.6 | 0.00 | 0.18 | 0.00 | 96 | 1005.6 |
| 20260507072235 | 13 | 124 | 0.0 | 1.6 | 0.00 | 0.18 | 0.00 | 96 | 1005.7 |
| 20260507071731 | 13 | 124 | 0.0 | 1.6 | 0.00 | 0.18 | 0.00 | 96 | 1005.6 |
| 20260507071233 | 13 | 124 | 0.0 | 0.0 | 0.00 | 0.18 | 0.00 | 96 | 1005.7 |
| 20260507070731 | 13 | 124 | 0.0 | 0.0 | 0.00 | 0.18 | 0.00 | 97 | 1005.9 |
| 20260507070231 | 13 | 124 | 0.0 | 0.0 | 0.00 | 0.18 | 0.00 | 97 | 1005.7 |
| 20260507065730 | 13 | 132 | 0.0 | 0.0 | 0.00 | 0.18 | 0.00 | 96 | 1005.5 |
| 20260507065230 | 13 | 132 | 0.0 | 0.0 | 0.00 | 0.18 | 0.00 | 97 | 1005.5 |
| 20260507064729 | 14 | 132 | 0.0 | 0.0 | 0.00 | 0.18 | 0.00 | 97 | 1005.6 |
| 20260507064229 | 13 | 133 | 0.0 | 0.0 | 0.00 | 0.18 | 0.00 | 97 | 1005.8 |
| 20260507063729 | 13 | 133 | 0.0 | 0.0 | 0.00 | 0.18 | 0.00 | 97 | 1005.8 |
| 20260507063229 | 13 | 131 | 0.0 | 0.0 | 0.00 | 0.18 | 0.00 | 97 | 1005.8 |
| 20260507062727 | 13 | 131 | 0.0 | 0.0 | 0.00 | 0.18 | 0.00 | 97 | 1005.7 |
| 20260507062227 | 13 | 232 | 0.0 | 1.6 | 0.00 | 0.18 | 0.00 | 97 | 1005.9 |
| 20260507062019 | 13 | 232 | 0.0 | 1.6 | 0.00 | 0.18 | 0.00 | 97 | 1005.8 |
| 20260507061225 | 13 | 232 | 0.0 | 1.6 | 0.00 | 0.18 | 0.00 | 97 | 1005.8 |
| 20260507061021 | 13 | 232 | 0.0 | 3.2 | 0.00 | 0.18 | 0.00 | 97 | 1006.0 |
| 20260507060223 | 13 | 234 | 1.6 | 3.2 | 0.00 | 0.18 | 0.00 | 97 | 1006.2 |
| 20260507055722 | 13 | 242 | 1.6 | 3.2 | 0.00 | 0.18 | 0.00 | 97 | 1006.1 |
| 20260507055220 | 13 | 238 | 0.0 | 3.2 | 0.00 | 0.18 | 0.00 | 97 | 1006.0 |
| 20260507054720 | 13 | 169 | 1.6 | 4.8 | 0.00 | 0.18 | 0.00 | 97 | 1006.0 |
| 20260507054219 | 13 | 205 | 1.6 | 6.4 | 0.00 | 0.18 | 0.00 | 96 | 1006.1 |
| 20260507053722 | 13 | 214 | 1.6 | 6.4 | 0.00 | 0.18 | 0.00 | 97 | 1006.1 |
| 20260507053217 | 13 | 236 | 1.6 | 6.4 | 0.00 | 0.18 | 0.00 | 97 | 1006.1 |
| 20260507053017 | 13 | 209 | 0.0 | 4.8 | 0.00 | 0.18 | 0.00 | 96 | 1006.1 |
| 20260507052211 | 13 | 228 | 0.0 | 1.6 | 0.00 | 0.18 | 0.00 | 96 | 1006.2 |
| 20260507051706 | 13 | 238 | 0.0 | 4.8 | 0.00 | 0.18 | 0.00 | 96 | 1006.2 |
| 20260507051206 | 13 | 238 | 1.6 | 4.8 | 0.00 | 0.18 | 0.00 | 96 | 1006.4 |
| 20260507050705 | 13 | 237 | 3.2 | 9.7 | 0.00 | 0.18 | 0.00 | 96 | 1006.5 |
| 20260507050203 | 13 | 229 | 3.2 | 12.9 | 0.00 | 0.18 | 0.00 | 96 | 1006.5 |
| 20260507045703 | 13 | 247 | 3.2 | 12.9 | 0.00 | 0.18 | 0.00 | 96 | 1006.5 |
| 20260507045203 | 13 | 228 | 3.2 | 6.4 | 0.00 | 0.18 | 0.00 | 96 | 1006.3 |
| 20260507044703 | 13 | 243 | 3.2 | 6.4 | 0.00 | 0.18 | 0.00 | 96 | 1006.2 |
| 20260507044201 | 13 | 231 | 3.2 | 6.4 | 0.00 | 0.18 | 0.00 | 96 | 1006.2 |
| 20260507043702 | 13 | 229 | 3.2 | 6.4 | 0.00 | 0.18 | 0.00 | 96 | 1006.2 |
| 20260507043201 | 13 | 236 | 3.2 | 6.4 | 0.00 | 0.18 | 0.00 | 96 | 1006.2 |
| 20260507042703 | 13 | 138 | 3.2 | 4.8 | 0.00 | 0.18 | 0.00 | 96 | 1006.2 |
| 20260507042159 | 13 | 219 | 3.2 | 6.4 | 0.00 | 0.18 | 0.00 | 96 | 1006.3 |
| 20260507041659 | 13 | 229 | 3.2 | 6.4 | 0.00 | 0.18 | 0.00 | 96 | 1006.2 |
| 20260507041448 | 13 | 219 | 4.8 | 9.7 | 0.00 | 0.18 | 0.00 | 96 | 1006.3 |
| 20260507040658 | 13 | 217 | 4.8 | 9.7 | 0.00 | 0.18 | 0.00 | 96 | 1006.3 |
| 20260507040231 | 13 | 204 | 4.8 | 12.9 | 0.00 | 0.18 | 0.00 | 96 | 1006.3 |
| 20260507035153 | 13 | 210 | 4.8 | 12.9 | 0.00 | 0.18 | 0.18 | 96 | 1006.7 |
| 20260507034946 | 13 | 230 | 4.8 | 11.3 | 0.00 | 0.18 | 0.18 | 96 | 1006.7 |
| 20260507034143 | 13 | 255 | 4.8 | 9.7 | 0.00 | 0.18 | 0.18 | 96 | 1006.6 |
| 20260507033643 | 13 | 224 | 4.8 | 12.9 | 0.00 | 0.18 | 0.18 | 96 | 1006.4 |
| 20260507033435 | 13 | 229 | 4.8 | 16.1 | 0.00 | 0.18 | 0.18 | 96 | 1006.4 |
| 20260507032644 | 13 | 214 | 4.8 | 16.1 | 0.00 | 0.18 | 0.18 | 96 | 1006.3 |
| 20260507032143 | 13 | 287 | 4.8 | 12.9 | 0.00 | 0.18 | 0.18 | 96 | 1006.3 |
| 20260507031642 | 13 | 219 | 4.8 | 16.1 | 0.00 | 0.18 | 0.18 | 96 | 1006.4 |
| 20260507031139 | 13 | 212 | 4.8 | 17.7 | 0.00 | 0.18 | 0.18 | 96 | 1006.1 |
| 20260507030640 | 13 | 233 | 4.8 | 17.7 | 0.00 | 0.18 | 0.18 | 96 | 1006.2 |
| 20260507030137 | 13 | 229 | 4.8 | 14.5 | 0.00 | 0.18 | 0.18 | 96 | 1006.1 |
| 20260507025637 | 13 | 219 | 6.4 | 14.5 | 0.00 | 0.18 | 0.18 | 96 | 1006.1 |
| 20260507025432 | 13 | 240 | 6.4 | 14.5 | 0.00 | 0.18 | 0.18 | 96 | 1006.0 |
| 20260507024638 | 13 | 221 | 4.8 | 12.9 | 0.00 | 0.18 | 0.18 | 96 | 1005.9 |
| 20260507024138 | 13 | 231 | 6.4 | 12.9 | 0.00 | 0.18 | 0.18 | 96 | 1006.0 |
| 20260507023635 | 13 | 245 | 6.4 | 20.9 | 0.00 | 0.18 | 0.18 | 96 | 1005.9 |
| 20260507023423 | 13 | 195 | 6.4 | 20.9 | 0.00 | 0.18 | 0.18 | 96 | 1006.0 |
| 20260507022926 | 13 | 221 | 4.8 | 14.5 | 0.00 | 0.18 | 0.18 | 96 | 1006.0 |
| 20260507022132 | 13 | 154 | 4.8 | 20.9 | 0.00 | 0.18 | 0.18 | 96 | 1006.1 |
| 20260507021926 | 13 | 146 | 6.4 | 20.9 | 0.00 | 0.18 | 0.18 | 96 | 1006.0 |
| 20260507021135 | 13 | 243 | 4.8 | 14.5 | 0.00 | 0.18 | 0.18 | 96 | 1006.3 |
| 20260507020631 | 13 | 240 | 4.8 | 14.5 | 0.00 | 0.18 | 0.18 | 96 | 1006.1 |
| 20260507020134 | 13 | 214 | 6.4 | 14.5 | 0.00 | 0.18 | 0.18 | 96 | 1006.4 |
| 20260507015630 | 13 | 245 | 4.8 | 14.5 | 0.00 | 0.18 | 0.18 | 96 | 1006.6 |
| 20260507015130 | 13 | 195 | 4.8 | 12.9 | 0.00 | 0.18 | 0.18 | 96 | 1006.6 |
| 20260507014629 | 13 | 193 | 4.8 | 12.9 | 0.00 | 0.18 | 0.18 | 96 | 1006.6 |
| 20260507014128 | 13 | 231 | 6.4 | 14.5 | 0.00 | 0.18 | 0.18 | 96 | 1006.7 |
| 20260507013919 | 13 | 214 | 4.8 | 14.5 | 0.00 | 0.18 | 0.18 | 96 | 1006.6 |
| 20260507013130 | 13 | 221 | 4.8 | 14.5 | 0.00 | 0.18 | 0.18 | 96 | 1006.6 |
| 20260507012925 | 13 | 144 | 6.4 | 17.7 | 0.00 | 0.18 | 0.18 | 96 | 1006.7 |
| 20260507012130 | 13 | 190 | 6.4 | 17.7 | 0.00 | 0.18 | 0.18 | 96 | 1006.8 |
| 20260507011927 | 13 | 229 | 4.8 | 16.1 | 0.03 | 0.18 | 0.18 | 96 | 1006.7 |
| 20260507011132 | 13 | 205 | 4.8 | 16.1 | 0.03 | 0.18 | 0.18 | 96 | 1006.8 |
| 20260507010629 | 13 | 250 | 6.4 | 17.7 | 0.05 | 0.18 | 0.18 | 96 | 1006.6 |
| 20260507010128 | 13 | 186 | 6.4 | 17.7 | 0.08 | 0.18 | 0.18 | 96 | 1006.7 |
| 20260507005631 | 13 | 248 | 6.4 | 19.3 | 0.08 | 0.18 | 0.18 | 96 | 1006.7 |
| 20260507005126 | 13 | 249 | 6.4 | 19.3 | 0.08 | 0.18 | 0.18 | 96 | 1006.6 |
| 20260507004912 | 13 | 216 | 6.4 | 19.3 | 0.08 | 0.18 | 0.18 | 96 | 1006.8 |
| 20260507004115 | 13 | 205 | 6.4 | 14.5 | 0.08 | 0.18 | 0.18 | 96 | 1006.8 |
| 20260507003612 | 13 | 233 | 6.4 | 19.3 | 0.08 | 0.18 | 0.18 | 96 | 1006.8 |
| 20260507003112 | 13 | 191 | 8.0 | 20.9 | 0.08 | 0.18 | 0.18 | 96 | 1006.9 |
| 20260507002609 | 13 | 198 | 8.0 | 20.9 | 0.08 | 0.18 | 0.18 | 96 | 1006.7 |
| 20260507002111 | 13 | 171 | 6.4 | 19.3 | 0.08 | 0.18 | 0.18 | 95 | 1006.7 |
| 20260507001609 | 14 | 136 | 4.8 | 19.3 | 0.05 | 0.15 | 0.15 | 95 | 1006.6 |
| 20260507001110 | 14 | 249 | 4.8 | 12.9 | 0.03 | 0.13 | 0.13 | 95 | 1006.6 |
| 20260507000903 | 14 | 193 | 6.4 | 19.3 | 0.03 | 0.13 | 0.13 | 95 | 1006.6 |
| 20260507000108 | 14 | 229 | 8.0 | 19.3 | 0.00 | 0.10 | 0.10 | 95 | 1006.6 |
| 20260506235605 | 14 | 125 | 6.4 | 19.3 | 0.03 | 0.10 | 0.10 | 95 | 1006.7 |
| 20260506235106 | 14 | 198 | 6.4 | 17.7 | 0.03 | 0.10 | 0.10 | 95 | 1006.6 |
| 20260506234605 | 14 | 212 | 4.8 | 12.9 | 0.03 | 0.10 | 0.10 | 95 | 1006.7 |
| 20260506234104 | 14 | 181 | 6.4 | 24.1 | 0.03 | 0.10 | 0.10 | 95 | 1006.4 |
| 20260506233603 | 14 | 162 | 8.0 | 24.1 | 0.05 | 0.10 | 0.10 | 95 | 1006.8 |
| 20260506233409 | 14 | 233 | 8.0 | 24.1 | 0.05 | 0.10 | 0.10 | 95 | 1006.8 |
| 20260506232606 | 14 | 208 | 8.0 | 19.3 | 0.05 | 0.10 | 0.10 | 95 | 1006.9 |
| 20260506232358 | 14 | 205 | 6.4 | 17.7 | 0.05 | 0.10 | 0.10 | 95 | 1006.9 |
| 20260506231603 | 14 | 92 | 6.4 | 14.5 | 0.08 | 0.10 | 0.10 | 95 | 1006.8 |
| 20260506231105 | 14 | 252 | 4.8 | 19.3 | 0.08 | 0.10 | 0.10 | 94 | 1006.8 |
| 20260506230606 | 14 | 239 | 6.4 | 19.3 | 0.08 | 0.10 | 0.10 | 94 | 1006.8 |
| 20260506230057 | 14 | 260 | 6.4 | 17.7 | 0.08 | 0.10 | 0.10 | 94 | 1006.8 |
| 20260506225845 | 14 | 204 | 4.8 | 17.7 | 0.05 | 0.08 | 0.08 | 94 | 1006.8 |
| 20260506225046 | 14 | 211 | 4.8 | 25.7 | 0.05 | 0.08 | 0.08 | 94 | 1006.9 |
| 20260506224542 | 14 | 170 | 6.4 | 25.7 | 0.05 | 0.08 | 0.08 | 94 | 1006.9 |
| 20260506224042 | 14 | 127 | 6.4 | 19.3 | 0.05 | 0.08 | 0.08 | 93 | 1007.2 |
| 20260506223542 | 14 | 229 | 4.8 | 19.3 | 0.03 | 0.05 | 0.05 | 93 | 1007.3 |
| 20260506223042 | 14 | 148 | 4.8 | 19.3 | 0.03 | 0.05 | 0.05 | 93 | 1007.3 |
| 20260506222542 | 15 | 157 | 6.4 | 14.5 | 0.03 | 0.05 | 0.05 | 92 | 1007.2 |
| 20260506222046 | 15 | 244 | 6.4 | 14.5 | 0.03 | 0.05 | 0.05 | 92 | 1007.4 |
| 20260506221546 | 15 | 151 | 6.4 | 19.3 | 0.00 | 0.03 | 0.03 | 92 | 1007.4 |
| 20260506221119 | 15 | 242 | 8.0 | 20.9 | 0.00 | 0.03 | 0.03 | 91 | 1007.4 |
| 20260506220046 | 15 | 177 | 4.8 | 17.7 | 0.00 | 0.03 | 0.03 | 91 | 1007.4 |
| 20260506215543 | 15 | 176 | 6.4 | 17.7 | 0.00 | 0.03 | 0.03 | 91 | 1007.4 |
| 20260506215121 | 15 | 253 | 6.4 | 24.1 | 0.00 | 0.03 | 0.03 | 91 | 1007.3 |
| 20260506214041 | 15 | 223 | 6.4 | 19.3 | 0.00 | 0.03 | 0.03 | 90 | 1007.3 |
| 20260506213539 | 15 | 231 | 4.8 | 17.7 | 0.00 | 0.03 | 0.03 | 90 | 1007.4 |
| 20260506213040 | 15 | 183 | 6.4 | 24.1 | 0.00 | 0.03 | 0.03 | 89 | 1007.5 |
| 20260506212537 | 15 | 191 | 8.0 | 24.1 | 0.00 | 0.03 | 0.03 | 89 | 1007.4 |
| 20260506212038 | 15 | 225 | 6.4 | 19.3 | 0.00 | 0.03 | 0.03 | 89 | 1007.6 |
| 20260506211536 | 15 | 225 | 6.4 | 24.1 | 0.00 | 0.03 | 0.03 | 89 | 1007.6 |
| 20260506211037 | 15 | 220 | 8.0 | 24.1 | 0.03 | 0.03 | 0.03 | 90 | 1007.7 |
| 20260506210842 | 15 | 245 | 8.0 | 24.1 | 0.03 | 0.03 | 0.03 | 90 | 1007.7 |
| 20260506210036 | 15 | 33 | 6.4 | 24.1 | 0.03 | 0.03 | 0.03 | 90 | 1007.7 |
| 20260506205537 | 15 | 224 | 6.4 | 22.5 | 0.03 | 0.03 | 0.03 | 90 | 1007.8 |
| 20260506205333 | 15 | 249 | 6.4 | 22.5 | 0.03 | 0.03 | 0.03 | 90 | 1007.8 |
| 20260506204536 | 15 | 237 | 6.4 | 20.9 | 0.03 | 0.03 | 0.03 | 90 | 1007.8 |
| 20260506204416 | 15 | 226 | 6.4 | 20.9 | 0.03 | 0.03 | 0.03 | 90 | 1007.7 |
| 20260506203036 | 15 | 175 | 8.0 | 22.5 | 0.03 | 0.03 | 0.03 | 90 | 1007.9 |
| 20260506202537 | 15 | 174 | 9.7 | 19.3 | 0.03 | 0.03 | 0.03 | 89 | 1007.7 |
| 20260506202036 | 15 | 231 | 6.4 | 19.3 | 0.03 | 0.03 | 0.03 | 89 | 1007.8 |
| 20260506201537 | 16 | 196 | 6.4 | 25.7 | 0.03 | 0.03 | 0.03 | 88 | 1008.0 |
| 20260506201038 | 16 | 169 | 6.4 | 25.7 | 0.00 | 0.00 | 0.00 | 87 | 1008.0 |
| 20260506200912 | 16 | 207 | 6.4 | 17.7 | 0.00 | 0.00 | 0.00 | 86 | 1008.0 |
| 20260506195538 | 16 | 230 | 8.0 | 20.9 | 0.00 | 0.00 | 0.00 | 84 | 1008.1 |
| 20260506195039 | 17 | 261 | 8.0 | 25.7 | 0.00 | 0.00 | 0.00 | 82 | 1008.3 |
| 20260506194537 | 17 | 212 | 8.0 | 25.7 | 0.00 | 0.00 | 0.00 | 81 | 1008.1 |
| 20260506194037 | 17 | 229 | 6.4 | 22.5 | 0.00 | 0.00 | 0.00 | 79 | 1008.2 |
| 20260506193536 | 17 | 233 | 8.0 | 25.7 | 0.00 | 0.00 | 0.00 | 78 | 1008.2 |
| 20260506193326 | 17 | 246 | 11.3 | 25.7 | 0.00 | 0.00 | 0.00 | 78 | 1008.2 |